Zurück zum Katalog

GEESAT 3-07

AktivKommunikationLEO
NORAD 61017·PAYLOAD·🇨🇳 China

Gestartet Sep 5, 2024 von Taiyuan Satellite Launch Center

Loading…

Nächste Überflüge (nächste 24 Stunden)

TLE

AktuellSource: Space-Track

Epoche: Sep 14, 2026, 13:43 UTC

1 61017U 24159G   26257.57187125  .00001264  00000-0  17527-3 0  9992
2 61017  49.9950  28.2251 0010726  16.6093 343.5195 14.84494025109421

Verfolge GEESAT 3-07 in Echtzeit mit AllMySat

Download on the App Store